{"data":{"norad_id":61569,"intl_designator":"2024-185T","name":"QIANFAN-36","alt_names":[],"object_type":"PAYLOAD","status":"ACTIVE","operator":null,"country":"PRC","launch_date":"2024-10-15","launch_site_code":"TAISC","launch_vehicle":null,"mission":null,"orbit_class":"UNKNOWN","rcs_meters":null,"size_class":null,"mass_kg":null,"dimensions":null,"purposes":[],"wikipedia_slug":null,"has_3d_model":false,"image_url":null,"decayed_at":null,"tle_current":{"epoch":"2026-09-22T20:08:58.480800Z","epoch_age_seconds":95268,"freshness":"FRESH","line1":"1 61569U 24185T   26265.83956575  .00000064  00000+0  75125-4 0  9999","line2":"2 61569  88.9803  51.4398 0004663 305.5150  54.5568 13.55647799106414","mean_motion":13.55647799,"eccentricity":0.0004663,"inclination_deg":88.9803,"raan_deg":51.4398,"arg_perigee_deg":305.515,"mean_anomaly_deg":54.5568,"bstar":7.5125e-5,"rev_number":10641,"period_min":106.222279936,"perigee_km":1048.0868091264,"apogee_km":1055.0157364096,"semimajor_km":7429.688272768,"source":"CELESTRAK","updated_at":"2026-09-23T09:00:20.908698Z"}}}